Location: DARK SKY Beskydy - Park tmavé oblohy, www.darkskybeskydy.cz
(49.4926°N, 18.5016°E)
Time: 03:34:21
(UTC+02:00)

A-11 Canister half - Pass Details

Date: 24 February 2024
Orbit: 1513 x 1686 km, 47.2° (Epoch: 24 April)

Event Time Altitude Azimuth Distance (km) Brightness Sun altitude
Rises 01:48:35 0° 222° (SW) 4,930 - -44.2°
Reaches altitude 10° 01:51:54 10° 217° (SW) 3,942 - -43.9°
Maximum altitude 02:01:26 48° 147° (SSE) 2,079 - -42.8°
Exits shadow 02:03:49 42° 113° (ESE) 2,238 9.8 -42.6°
Drops below altitude 10° 02:10:47 10° 78° (ENE) 3,875 11.6 -41.8°
Sets 02:14:00 0° 73° (ENE) 4,841 12.3 -41.4°
